Location: Dover
(39.1580°N, 75.5250°W)
Time: 18:31:21
(UTC-04:00)

SeaSat 1 - Visible Passes

Search period start: 28 July 2014 00:00
Search period end: 07 August 2014 00:00
Orbit: 746 x 750 km, 108.0° (Epoch: 28 July)

Date Brightness Start Highest point End Pass type
(mag) Time Alt. Az. Time Alt. Az. Time Alt. Az.
28 Jul 2.8 20:58:02 10° SSE 21:02:55 67° WSW 21:07:51 10° NNW visible
29 Jul 4.5 21:55:34 10° SSW 21:59:17 21° WSW 22:03:02 10° WNW visible
30 Jul 3.0 21:12:48 10° SSE 21:17:39 58° WSW 21:22:32 10° NNW visible
31 Jul 4.6 22:10:38 10° SSW 22:14:04 19° WSW 22:17:31 10° WNW visible
01 Aug 3.1 21:27:36 10° S 21:32:23 51° WSW 21:37:12 10° NW visible
02 Aug 2.6 20:46:08 10° SE 20:50:58 60° ENE 20:55:50 10° NNW visible
02 Aug 4.8 22:25:45 10° SW 22:28:50 17° WSW 22:31:55 10° WNW visible
03 Aug 3.3 21:42:52 12° S 21:47:07 45° WSW 21:51:51 10° NW visible
04 Aug 2.5 21:00:47 10° SE 21:05:40 68° ENE 21:10:35 10° NNW visible
04 Aug 4.8 22:40:59 10° SW 22:43:36 14° WSW 22:46:15 10° WNW visible
05 Aug 3.5 21:58:25 17° S 22:01:52 39° WSW 22:06:30 10° NW visible
06 Aug 2.4 21:16:15 15° SSE 21:20:23 77° ENE 21:25:20 10° NNW visible
06 Aug 4.9 22:56:21 10° SW 22:58:23 12° WSW 23:00:25 10° WNW visible
